953  
ASUS41 KOKX 311904  
RWROKX  
 
REGIONAL WEATHER ROUNDUP  
NATIONAL WEATHER SERVICE NEW YORK NY  
300 PM EDT TUE MAY 31 2016  
 
NOTE: "FAIR" INDICATES FEW OR NO CLOUDS BELOW 12,000 FEET WITH NO  
SIGNIFICANT WEATHER AND/OR S TO VISIBILITY
.  
 
NYZ071-072-176-178-NJZ106-104-312000-  
NEW YORK CITY METRO AREA  
 
 
CITY SKY/WX TMP DP RH WIND PRES REMARKS
 
CENTRAL PARK MOSUNNY 83 64 52 VRB3 29.95F  
LAGUARDIA APRT PTSUNNY 83 68 60 S8 29.92F  
KENNEDY INTL MOSUNNY 76 68 76 S12 29.95F  
NEWARK/LIBERTY MOSUNNY 82 63 52 SE9G16 29.92F  
BRNX BOT. GARD N/A 84 57 39 W3 29.93S  
TETERBORO MOSUNNY 85 53 33 SW10 29.90F  

 
 
NYZ177-179-078>081-312000-  
LONG ISLAND NEW YORK  
 
CITY SKY/WX TMP DP RH WIND PRES REMARKS
 
FARMINGDALE SUNNY 78 66 66 S9 29.94F  
ISLIP MOSUNNY 76 66 71 S12 29.94S  
SHIRLEY SUNNY 75 66 73 S10 29.95S  
RIVERHEAD N/A 81 68 65 CALM 29.93S  
WESTHAMPTON SUNNY 73 65 75 SW10 29.96S  
EAST HAMPTON FAIR 71 65 81 S9 29.94S  
MONTAUK POINT N/A 71 66 84 SW9 29.95S  

 
 
NYZ052-065-067-312000-  
HUDSON VALLEY  
 
CITY SKY/WX TMP DP RH WIND PRES REMARKS
 
WHITE PLAINS MOSUNNY 83 55 38 W7 29.93F  
NEWBURGH NOT AVBL  
MONTGOMERY PTSUNNY 86 55 34 VRB3 29.92F  
POUGHKEEPSIE SUNNY 85 55 35 CALM 29.91F  
ALBANY MOSUNNY 82 50 32 NW16G29 29.92F  

 
 
NJZ001-105-106-008-010-013-015-019>022-104-312000-  
NEW JERSEY  
 
CITY SKY/WX TMP DP RH WIND PRES REMARKS
 
NEWARK/LIBERTY MOSUNNY 82 63 52 SE9G16 29.92F  
TETERBORO MOSUNNY 85 53 33 SW10 29.90F  
CALDWELL SUNNY 86 51 29 NW7 29.93F  
MORRISTOWN MOSUNNY 84 50 30 CALM 29.93F  
SOMERVILLE SUNNY 86 52 30 VRB3 29.92F  
SUSSEX MOSUNNY 84 52 33 W8G17 29.95S  
ANDOVER N/A 83 52 34 CALM 29.95F  
TRENTON MOSUNNY 86 58 38 CALM 29.93F  
MILLVILLE MOSUNNY 84 67 56 VRB3 29.94F  
ATLANTIC CITY SUNNY 78 68 71 SE12 29.95S  
WRIGHTSTOWN MOSUNNY 83 67 58 CALM 29.91F  
TOMS RIVER PTSUNNY 79 64 61 SE9 29.95S  
BELMAR SUNNY 79 68 69 SE9 29.96F  

 
 
PAZ047>061-062-071-312000-  
EASTERN PENNSYLVANIA  
 
CITY SKY/WX TMP DP RH WIND PRES REMARKS
 
PHILADELPHIA MOSUNNY 87 55 33 VRB6 29.94S  
ALLENTOWN PTSUNNY 85 53 33 CALM 29.95F  
SCRANTON MOSUNNY 84 53 34 NW15G21 29.97F  

 
 
CTZ002-004>006-009-010-012-RIZ004-006-007-MAZ004-011-015-312000-  
SOUTHERN NEW ENGLAND  
IN CT  
 
CITY SKY/WX TMP DP RH WIND PRES REMARKS
 
BRADLEY INTL MOSUNNY 85 49 28 NW13 29.90S  
HARTFORD SUNNY 87 51 28 W7 29.89F  
DANBURY SUNNY 82 53 36 W7 29.94F  
WTRBRY/OXFORD MOSUNNY 81 52 36 NW6 29.96F  
BRIDGEPORT SUNNY 81 58 45 S10 29.92F  
MERIDEN SUNNY 86 49 27 NW7 29.90F  
NEW HAVEN MOSUNNY 77 64 64 S9 29.92F  
CHESTER FAIR 79 61 53 S12 29.93S  
GROTON SUNNY 70 66 87 S8 29.92S  
WILLIMANTIC SUNNY 84 52 33 SW10 29.90F  
 
IN RI  
 
CITY SKY/WX TMP DP RH WIND PRES REMARKS
 
PROVIDENCE PTSUNNY 83 60 45 S10 29.89F  
BLOCK ISLAND MOSUNNY 69 64 84 SW16G24 29.94S  
WESTERLY SUNNY 73 63 70 S16 29.93F  
 
IN MA  
 
CITY SKY/WX TMP DP RH WIND PRES REMARKS
 
BOSTON MOSUNNY 85 48 27 W17G23 29.85F  
WORCESTER SUNNY 80 48 32 W10G18 29.91F  
WESTFIELD SUNNY 85 48 27 NW14G23 29.90F  
PROVINCETOWN CLOUDY 72 64 76 SW15G24 29.88F  
NANTUCKET CLOUDY 65 61 87 SW12 29.94F  

 
 
ANZ330-335-338-340-345-350-353-355-312000-  
COASTAL MARINE OBSERVATIONS  
 
 
STATION/POSITION TIME SKY/WX TEMP WIND PRES VSBY WAVE
 
AIR SEA DIR/SP/G HT/PER  
(UTC) (F) (DEG/KT/KT) (MB) (MI) (FT/S)  
NY HARB ENTRANCE 1750 63 61 170/ 8/ 8 1014.0 3/ 7  
20S FIRE ISLAND 1750 64 62 170/ 6/ 6 1014.2 4/ 7  
GREAT SOUTH BAY 1800 65 72 210/ 10/ 10 N/A  
23 SSW MONTAUK P 1850 62 60 220/ 8/ 10 1013.4 4/ 7  
15 E BARNEGAT LI 1822 65 N/A 4/ 7  
HUDSON CANYON 1750 64 62 1014.5 3/ 8  
KINGS POINT 1800 78 62 1013.6  
EXECUTION ROCKS NOT AVBL  
CENTRAL LI SOUND 1800 70 220/ 6/ 6 N/A 0  
EASTERN LI SOUND 1800 62 57 260/ 2/ 4 N/A  
ROBBINS REEF 1800 72 170/ 13/ 13 1013.3  

 
 
>>>>>>>>>>>>>>>>>>>>>>>>>>>> KEY <<<<<<<<<<<<<<<<<<<<<<<<<<<  
> <  
> SKY/WX - SKY CONDITION/PRESENT WEATHER <  
> TMP - TEMPERATURE IN FAHRENHEIT <  
> DP - DEWPOINT IN FAHRENHEIT <  
> RH - RELATIVE HUMIDITY IN PERCENT <  
> WIND - DIRECTION AND SPEED IN MPH <  
> PRES - MEAN SEA LEVEL PRESSURE IN INCHES OF HG <  
> WCI - WIND CHILL INDEX <  
> VSB - VISIBILITY IN MILES <  
> HX - HEAT INDEX <  
> TC - TEMPERATURE IN CELSIUS <  
> VRB - VARIABLE WIND DIRECTION <  
> <  
>>>>>>>>>>>>>>>>>>>>>>>>>>>> KEY <<<<<<<<<<<<<<<<<<<<<<<<<<<  
 
 
 
CLICK HERE TO GO TO PREVIOUS BULLETINS.

The Nexlab NY Page
The Nexlab NJ Page
The Nexlab CT Page Main Text Page